User: anonymous   Login
Location: Unspecified
(0.0000°N, 0.0000°E)
Time: 21:11:53
(UTC+00:00)
Language:

PROBA 2 - Orbit

View from above orbital plane
View from above orbital plane
View from above satellite
View from above satellite

Ground track
Ground track

The orbit data is extracted from the following two-line orbital elements,

1 36037U 09059B   16344.49574572  .00000043  00000-0  21358-4 0  9993
2 36037  98.2553 174.8824 0012980 195.8094 164.2699 14.52978319376588
Epoch (UTC): 09 December 2016 11:53:52
Eccentricity: 0.0012980
inclination: 98.2553°
perigee height: 707 km
apogee height: 725 km
right ascension of ascending node: 174.8824°
argument of perigee: 195.8094°
revolutions per day: 14.52978319
mean anomaly at epoch: 164.2699°
orbit number at epoch: 37658

The dashed part of the orbit path shows where the satellite is in the earth's shadow,  

DLR